KLM57D EHAM-EDDF

Flight info

Callsign KLM57D
Flight time 0h 43m
Altitude 33000
Route EDUPO Z739 MISGO DCT DIXAT DIXAT1A
Aircraft E190/M-SDE3GILORVW/S

Departure

Time 2026-04-17 05:47
Airport Amsterdam Airport Schiphol (EHAM)

Arrival

Time 2026-04-17 06:30
Airport Frankfurt Main Airport (EDDF)
Time Latitude Longitude Altitude Speed Heading
2026-04-17 05:31 52.30280 4.76269 -2 ft 0 kts 58°
2026-04-17 05:40 52.30272 4.76249 -2 ft 4 kts 61°
2026-04-17 05:41 52.30265 4.76224 -2 ft 4 kts 81°
2026-04-17 05:41 52.30267 4.76194 -2 ft 1 kts 140°
2026-04-17 05:41 52.30268 4.76193 -2 ft 3 kts 140°
2026-04-17 05:43 52.30245 4.76216 -2 ft 10 kts 149°
2026-04-17 05:44 52.30153 4.76280 -2 ft 16 kts 149°
2026-04-17 05:44 52.30161 4.76431 -2 ft 17 kts 57°
2026-04-17 05:44 52.30233 4.76616 -2 ft 22 kts 58°
2026-04-17 05:44 52.30317 4.76836 -2 ft 24 kts 58°
2026-04-17 05:45 52.30411 4.77079 -3 ft 26 kts 58°
2026-04-17 05:45 52.30505 4.77326 -2 ft 27 kts 58°
2026-04-17 05:45 52.30564 4.77506 -2 ft 15 kts 89°
2026-04-17 05:45 52.30491 4.77608 -2 ft 15 kts 153°
2026-04-17 05:46 52.30427 4.77645 -2 ft 9 kts 189°
2026-04-17 05:46 52.30380 4.77548 -3 ft 18 kts 238°
2026-04-17 05:46 52.30182 4.77032 -5 ft 92 kts 238°
2026-04-17 05:46 52.29713 4.75813 5 ft 159 kts 237°
2026-04-17 05:47 52.29057 4.74120 480 ft 193 kts 237°
2026-04-17 05:47 52.28336 4.72254 623 ft 196 kts 237°
2026-04-17 05:47 52.27563 4.70233 933 ft 226 kts 236°
2026-04-17 05:47 52.26463 4.68422 1784 ft 230 kts 206°
2026-04-17 05:48 52.24895 4.68038 2898 ft 234 kts 172°
2026-04-17 05:48 52.23429 4.69163 4055 ft 237 kts 141°
2026-04-17 05:48 52.22447 4.71335 5079 ft 241 kts 120°
2026-04-17 05:48 52.21759 4.73843 5971 ft 244 kts 111°
2026-04-17 05:49 52.21260 4.76506 6801 ft 248 kts 108°
2026-04-17 05:49 52.20490 4.79113 7245 ft 263 kts 126°
2026-04-17 05:49 52.19382 4.81572 7757 ft 277 kts 129°
2026-04-17 05:49 52.18227 4.84149 8401 ft 285 kts 127°
2026-04-17 05:50 52.17384 4.87098 9143 ft 294 kts 102°
2026-04-17 05:50 52.17517 4.90438 9984 ft 301 kts 76°
2026-04-17 05:50 52.18126 4.93753 10576 ft 315 kts 73°
2026-04-17 05:50 52.18822 4.97263 10890 ft 337 kts 72°
2026-04-17 05:51 52.19571 5.01009 11268 ft 356 kts 72°
2026-04-17 05:51 52.20333 5.04904 11951 ft 364 kts 73°
2026-04-17 05:51 52.21096 5.08857 12787 ft 368 kts 73°
2026-04-17 05:51 52.21873 5.12851 13677 ft 373 kts 72°
2026-04-17 05:52 52.22675 5.16916 14537 ft 378 kts 72°
2026-04-17 05:52 52.23499 5.21018 15413 ft 383 kts 72°
2026-04-17 05:52 52.24059 5.25275 16238 ft 387 kts 89°
2026-04-17 05:52 52.23606 5.29561 17041 ft 386 kts 114°
2026-04-17 05:53 52.22243 5.33309 17843 ft 385 kts 130°
2026-04-17 05:53 52.20539 5.36715 18605 ft 390 kts 133°
2026-04-17 05:53 52.18812 5.40162 19293 ft 396 kts 131°
2026-04-17 05:53 52.17107 5.43724 19924 ft 403 kts 130°
2026-04-17 05:54 52.15389 5.47365 20547 ft 408 kts 130°
2026-04-17 05:54 52.13649 5.51042 21201 ft 412 kts 130°
2026-04-17 05:54 52.11881 5.54741 21781 ft 417 kts 130°
2026-04-17 05:54 52.10082 5.58474 22350 ft 422 kts 130°
2026-04-17 05:55 52.08349 5.62367 22915 ft 427 kts 127°
2026-04-17 05:55 52.06639 5.66347 23506 ft 432 kts 127°
2026-04-17 05:55 52.04863 5.70300 24015 ft 435 kts 132°
2026-04-17 05:55 52.02891 5.73964 24483 ft 437 kts 135°
2026-04-17 05:56 52.00841 5.77630 25016 ft 441 kts 135°
2026-04-17 05:56 51.98793 5.81353 25527 ft 444 kts 134°
2026-04-17 05:56 51.96740 5.85132 26034 ft 448 kts 134°
2026-04-17 05:56 51.94686 5.88950 26479 ft 452 kts 133°
2026-04-17 05:57 51.92616 5.92814 26927 ft 456 kts 133°
2026-04-17 05:57 51.90531 5.96698 27381 ft 459 kts 133°
2026-04-17 05:57 51.88430 6.00608 27832 ft 461 kts 133°
2026-04-17 05:57 51.86322 6.04525 28271 ft 463 kts 133°
2026-04-17 05:58 51.84196 6.08464 28671 ft 466 kts 133°
2026-04-17 05:58 51.82046 6.12409 29067 ft 469 kts 133°
2026-04-17 05:58 51.79889 6.16365 29536 ft 469 kts 133°
2026-04-17 05:59 51.75581 6.24249 30591 ft 467 kts 133°
2026-04-17 05:59 51.73428 6.28175 30982 ft 467 kts 133°
2026-04-17 05:59 51.71278 6.32093 31383 ft 467 kts 133°
2026-04-17 05:59 51.69123 6.36012 31772 ft 467 kts 133°
2026-04-17 06:00 51.66972 6.39920 32139 ft 467 kts 133°
2026-04-17 06:00 51.64809 6.43840 32490 ft 468 kts 133°
2026-04-17 06:00 51.62650 6.47751 32855 ft 467 kts 133°
2026-04-17 06:00 51.60497 6.51646 33314 ft 463 kts 133°
2026-04-17 06:01 51.58341 6.55538 33320 ft 467 kts 133°
2026-04-17 06:01 51.54021 6.63325 33221 ft 466 kts 133°
2026-04-17 06:02 51.49707 6.71078 33205 ft 466 kts 133°
2026-04-17 06:02 51.45372 6.78842 33212 ft 467 kts 134°
2026-04-17 06:03 51.41029 6.86596 33208 ft 467 kts 134°
2026-04-17 06:03 51.36864 6.94605 33227 ft 469 kts 129°
2026-04-17 06:04 51.32860 7.02799 33248 ft 467 kts 130°
2026-04-17 06:04 51.28809 7.10931 33267 ft 467 kts 130°
2026-04-17 06:04 51.26658 7.14697 33230 ft 464 kts 143°
2026-04-17 06:05 51.23968 7.17447 33275 ft 458 kts 156°
2026-04-17 06:05 51.18211 7.21915 32746 ft 465 kts 158°
2026-04-17 06:05 51.15301 7.24169 32064 ft 464 kts 157°
2026-04-17 06:06 51.12418 7.26443 31419 ft 462 kts 156°
2026-04-17 06:06 51.09554 7.28746 30783 ft 460 kts 155°
2026-04-17 06:06 51.06716 7.31094 30165 ft 459 kts 155°
2026-04-17 06:06 51.03887 7.33436 29442 ft 460 kts 155°
2026-04-17 06:07 51.01042 7.35789 28761 ft 461 kts 155°
2026-04-17 06:07 50.98204 7.38132 28067 ft 458 kts 155°
2026-04-17 06:07 50.95389 7.40453 27424 ft 453 kts 155°
2026-04-17 06:07 50.92608 7.42738 26761 ft 448 kts 155°
2026-04-17 06:08 50.89856 7.44991 26146 ft 443 kts 155°
2026-04-17 06:08 50.87136 7.47219 25498 ft 440 kts 155°
2026-04-17 06:08 50.84416 7.49441 24784 ft 437 kts 155°
2026-04-17 06:08 50.81729 7.51636 24066 ft 433 kts 155°
2026-04-17 06:09 50.79147 7.53744 23618 ft 404 kts 155°
2026-04-17 06:09 50.76716 7.55730 22953 ft 383 kts 155°
2026-04-17 06:09 50.74381 7.57627 22315 ft 372 kts 155°
2026-04-17 06:09 50.72097 7.59478 21841 ft 367 kts 155°
2026-04-17 06:10 50.69833 7.61312 21287 ft 364 kts 155°
2026-04-17 06:10 50.67589 7.63128 20856 ft 358 kts 155°
2026-04-17 06:10 50.65398 7.64904 20526 ft 350 kts 155°
2026-04-17 06:10 50.63256 7.66638 20134 ft 345 kts 155°
2026-04-17 06:11 50.61036 7.68425 19554 ft 374 kts 155°
2026-04-17 06:11 50.58666 7.70332 18952 ft 388 kts 154°
2026-04-17 06:11 50.56255 7.72278 18340 ft 391 kts 154°
2026-04-17 06:11 50.53833 7.74229 17675 ft 389 kts 154°
2026-04-17 06:12 50.51432 7.76163 17012 ft 386 kts 154°
2026-04-17 06:12 50.49054 7.78072 16367 ft 381 kts 154°
2026-04-17 06:12 50.46710 7.79955 15756 ft 376 kts 154°
2026-04-17 06:12 50.44382 7.81819 15131 ft 373 kts 154°
2026-04-17 06:13 50.42164 7.83762 14520 ft 368 kts 147°
2026-04-17 06:13 50.40174 7.86231 13923 ft 362 kts 140°
2026-04-17 06:13 50.38281 7.88800 13273 ft 357 kts 140°
2026-04-17 06:13 50.36382 7.91285 12610 ft 353 kts 141°
2026-04-17 06:14 50.34490 7.93686 11968 ft 349 kts 142°
2026-04-17 06:14 50.32603 7.96039 11348 ft 344 kts 142°
2026-04-17 06:14 50.30769 7.98312 11257 ft 325 kts 142°
2026-04-17 06:14 50.29047 8.00438 11210 ft 307 kts 142°
2026-04-17 06:15 50.27402 8.02471 11173 ft 298 kts 142°
2026-04-17 06:15 50.25870 8.04654 11105 ft 304 kts 133°
2026-04-17 06:15 50.24532 8.07223 10852 ft 304 kts 127°
2026-04-17 06:15 50.23280 8.09869 10594 ft 301 kts 127°
2026-04-17 06:16 50.22036 8.12473 10353 ft 298 kts 128°
2026-04-17 06:16 50.20794 8.15032 10249 ft 293 kts 128°
2026-04-17 06:16 50.19555 8.17557 10254 ft 294 kts 128°
2026-04-17 06:16 50.18304 8.20086 10267 ft 296 kts 128°
2026-04-17 06:17 50.17043 8.22629 10280 ft 297 kts 128°
2026-04-17 06:17 50.15781 8.25178 10289 ft 297 kts 128°
2026-04-17 06:17 50.14517 8.27729 10294 ft 297 kts 128°
2026-04-17 06:17 50.13257 8.30268 10275 ft 297 kts 128°
2026-04-17 06:18 50.11989 8.32823 10223 ft 296 kts 128°
2026-04-17 06:18 50.10772 8.35399 10236 ft 295 kts 120°
2026-04-17 06:18 50.10165 8.38425 10240 ft 296 kts 91°
2026-04-17 06:18 50.10529 8.41545 10259 ft 294 kts 70°
2026-04-17 06:19 50.11261 8.44548 10024 ft 299 kts 67°
2026-04-17 06:19 50.12047 8.47539 9650 ft 298 kts 67°
2026-04-17 06:19 50.12808 8.50515 9290 ft 294 kts 68°
2026-04-17 06:19 50.13539 8.53471 8925 ft 290 kts 69°
2026-04-17 06:20 50.14245 8.56405 8590 ft 288 kts 69°
2026-04-17 06:20 50.14938 8.59316 8246 ft 286 kts 69°
2026-04-17 06:20 50.15623 8.62224 7915 ft 285 kts 70°
2026-04-17 06:20 50.16298 8.65123 7587 ft 284 kts 70°
2026-04-17 06:21 50.16972 8.68011 7264 ft 282 kts 70°
2026-04-17 06:21 50.17645 8.70874 6954 ft 281 kts 70°
2026-04-17 06:21 50.18321 8.73736 6630 ft 280 kts 70°
2026-04-17 06:21 50.18992 8.76580 6295 ft 279 kts 70°
2026-04-17 06:22 50.19663 8.79411 5968 ft 277 kts 70°
2026-04-17 06:22 50.20325 8.82218 5619 ft 275 kts 70°
2026-04-17 06:22 50.20976 8.84974 5373 ft 267 kts 70°
2026-04-17 06:22 50.21606 8.87659 5073 ft 257 kts 71°
2026-04-17 06:23 50.21929 8.90282 4727 ft 241 kts 96°
2026-04-17 06:23 50.21379 8.92652 4418 ft 233 kts 129°
2026-04-17 06:23 50.20089 8.94118 4185 ft 231 kts 161°
2026-04-17 06:23 50.18559 8.94842 3999 ft 229 kts 164°
2026-04-17 06:24 50.17078 8.95543 4021 ft 215 kts 163°
2026-04-17 06:24 50.15664 8.96150 4022 ft 207 kts 174°
2026-04-17 06:24 50.14281 8.95752 3993 ft 206 kts 211°
2026-04-17 06:24 50.13213 8.94267 4006 ft 207 kts 224°
2026-04-17 06:25 50.12158 8.92738 4022 ft 208 kts 224°
2026-04-17 06:25 50.11467 8.90780 4038 ft 210 kts 253°
2026-04-17 06:25 50.11106 8.88573 4085 ft 210 kts 251°
2026-04-17 06:25 50.10585 8.86439 4015 ft 212 kts 246°
2026-04-17 06:26 50.10041 8.84307 3876 ft 213 kts 249°
2026-04-17 06:26 50.09545 8.82084 3528 ft 218 kts 249°
2026-04-17 06:26 50.09033 8.79897 3276 ft 210 kts 248°
2026-04-17 06:26 50.08537 8.77836 2976 ft 197 kts 248°
2026-04-17 06:27 50.08085 8.75899 2733 ft 182 kts 249°
2026-04-17 06:27 50.07666 8.74121 2474 ft 168 kts 248°
2026-04-17 06:27 50.07289 8.72530 2294 ft 144 kts 248°
2026-04-17 06:27 50.07069 8.71597 2143 ft 135 kts 248°
2026-04-17 06:28 50.06754 8.70265 1958 ft 129 kts 248°
2026-04-17 06:28 50.06547 8.68895 1765 ft 131 kts 260°
2026-04-17 06:28 50.06426 8.67500 1557 ft 129 kts 261°
2026-04-17 06:28 50.06260 8.66144 1387 ft 126 kts 252°
2026-04-17 06:29 50.05983 8.64857 1221 ft 125 kts 249°
2026-04-17 06:29 50.05677 8.63582 1096 ft 126 kts 249°
2026-04-17 06:29 50.05370 8.62301 933 ft 128 kts 249°
2026-04-17 06:29 50.05064 8.60992 759 ft 130 kts 249°
2026-04-17 06:30 50.04738 8.59664 558 ft 132 kts 249°
2026-04-17 06:30 50.04423 8.58329 381 ft 129 kts 249°
2026-04-17 06:30 50.04160 8.57221 364 ft 79 kts 250°
2026-04-17 06:30 50.04062 8.56806 363 ft 15 kts 250°
2026-04-17 06:31 50.04116 8.56729 362 ft 14 kts 22°
2026-04-17 06:31 50.04224 8.56790 364 ft 18 kts 18°
2026-04-17 06:31 50.04299 8.57000 364 ft 28 kts 69°
2026-04-17 06:31 50.04368 8.57289 362 ft 29 kts 69°
2026-04-17 06:32 50.04439 8.57584 363 ft 27 kts 70°
2026-04-17 06:32 50.04506 8.57865 364 ft 28 kts 70°
2026-04-17 06:32 50.04576 8.58158 366 ft 29 kts 70°
2026-04-17 06:32 50.04644 8.58446 373 ft 28 kts 70°
2026-04-17 06:33 50.04718 8.58735 371 ft 29 kts 65°
2026-04-17 06:33 50.04785 8.59011 367 ft 27 kts 70°
2026-04-17 06:33 50.04847 8.59272 369 ft 18 kts 70°
2026-04-17 06:33 50.04866 8.59425 370 ft 13 kts 103°
2026-04-17 06:34 50.04846 8.59567 369 ft 11 kts 85°
2026-04-17 06:34 50.04862 8.59643 369 ft 5 kts 62°
2026-04-17 06:34 50.04875 8.59635 369 ft 2 kts 304°
2026-04-17 06:34 50.04882 8.59611 369 ft 1 kts 297°
2026-04-17 06:35 50.04888 8.59594 368 ft 0 kts 297°
2026-04-17 06:35 50.04890 8.59588 368 ft 0 kts 297°